Stations météo

Publicité
Köln-Bonn, Allemagne (10513): Température de l'air & dewpoint: 15.06.2018 01:00:00 - 21.06.2018 01:00:00 (CEST)Köln-Bonn, Allemagne (10513): Température de l'air 5cm & Température de l'air -5cm: 15.06.2018 01:00:00 - 21.06.2018 01:00:00 (CEST)Köln-Bonn, Allemagne (10513): Température de l'air -20cm & Température de l'air -100cm: 15.06.2018 01:00:00 - 21.06.2018 01:00:00 (CEST)Köln-Bonn, Allemagne (10513): Vitesse du vent & gusts: 15.06.2018 01:00:00 - 21.06.2018 01:00:00 (CEST)Köln-Bonn, Allemagne (10513): Direction du vent: 15.06.2018 01:00:00 - 21.06.2018 01:00:00 (CEST)Köln-Bonn, Allemagne (10513): reduced air pressure: 15.06.2018 01:00:00 - 21.06.2018 01:00:00 (CEST)Köln-Bonn, Allemagne (10513): visibility: 15.06.2018 01:00:00 - 21.06.2018 01:00:00 (CEST)Köln-Bonn, Allemagne (10513): Ensoleillement: 15.06.2018 01:00:00 - 21.06.2018 01:00:00 (CEST)Köln-Bonn, Allemagne (10513): Quantités de précipitations: 15.06.2018 01:00:00 - 21.06.2018 01:00:00 (CEST)
Date & Time tt [°C] td [°C] tt 5cm [°C] tt -5cm [°C] tt -20cm [°C] tt -100cm [°C] ff [km/h] ff [knt] fx [km/h] fx [knt] dd ppp [hPa] vv [km] sd [min] rr [mm]
21.06.2018 01:00:00 19,1 14,6 17,1 23,2 25,0 18,0 2 1 9 5 - 1017,2 10 0 0,0
21.06.2018 00:00:00 20,0 14,2 18,1 24,3 25,6 18,0 5 3 11 6 SW 1017,4 70 0 0,0
20.06.2018 23:00:00 20,2 14,8 18,8 25,6 26,1 18,0 5 3 13 7 WSW 1017,7 70 0 0,0
20.06.2018 22:00:00 22,3 14,7 20,1 27,6 26,6 18,0 9 5 18 10 NNW 1017,4 10 21 0,0
20.06.2018 21:00:00 24,9 14,2 24,4 30,2 26,9 18,0 11 6 22 12 WNW 1017,2 70 60 0,0
20.06.2018 20:00:00 26,7 14,3 27,7 32,8 26,9 18,0 11 6 21 11 NW 1017,4 10 60 0,0
20.06.2018 19:00:00 27,9 15,2 29,9 34,8 26,6 18,0 12 6 24 13 WNW 1017,7 70 60 0,0
20.06.2018 18:00:00 27,8 15,2 31,2 36,1 26,0 18,0 11 6 21 11 WNW 1018,2 10 42 0,0
20.06.2018 17:00:00 27,9 15,8 32,7 37,5 25,1 18,0 8 4 18 10 SSW 1018,8 70 56 0,0
20.06.2018 16:00:00 28,4 15,9 34,0 37,1 24,1 18,0 8 4 24 13 - 1019,3 10 55 0,0
20.06.2018 15:00:00 27,5 14,8 33,5 35,8 23,0 18,0 4 2 18 10 - 1019,9 10 51 0,0
20.06.2018 14:00:00 26,3 14,8 31,7 33,2 21,9 18,0 7 4 21 11 WSW 1020,5 60 39 0,0
20.06.2018 13:00:00 25,4 15,0 30,6 30,9 21,0 18,0 8 4 21 11 - 1021,2 10 45 0,0
20.06.2018 12:00:00 24,4 16,1 28,7 27,5 20,3 18,0 11 6 21 11 S 1021,6 10 34 0,0
20.06.2018 11:00:00 23,1 16,1 25,7 24,9 19,8 18,0 11 6 18 10 S 1022,1 10 25 0,0
20.06.2018 10:00:00 21,9 16,3 24,5 23,9 19,3 18,0 5 3 13 7 SSE 1022,3 10 41 0,0
20.06.2018 09:00:00 20,7 16,0 21,9 20,9 19,2 18,0 4 2 8 4 SSW 1022,6 50 0 0,0
20.06.2018 08:00:00 19,4 16,2 20,0 19,4 19,2 18,0 4 2 8 4 SE 1022,6 50 0 0,0
20.06.2018 07:00:00 18,2 16,7 18,2 18,7 19,2 18,0 4 2 5 3 ESE 1022,9 45 0 0,0
20.06.2018 06:00:00 17,7 16,5 17,4 18,5 19,3 18,0 2 1 11 6 - 1023,0 10 0 0,0
20.06.2018 05:00:00 18,0 16,6 17,5 18,7 19,5 18,0 4 2 11 6 - 1023,2 10 0 0,0
20.06.2018 04:00:00 18,2 16,5 17,8 18,8 19,6 18,0 7 4 8 4 ESE 1023,6 35 0 0,0
20.06.2018 03:00:00 17,7 16,6 17,3 19,0 19,8 18,0 8 4 9 5 ESE 1023,8 35 0 0,0
20.06.2018 02:00:00 18,0 16,7 17,6 19,2 19,9 18,0 5 3 5 3 SE 1024,2 40 0 0,0
20.06.2018 01:00:00 18,1 16,6 17,7 19,5 20,1 18,0 4 2 5 3 ESE 1024,3 40 0 0,0
20.06.2018 00:00:00 18,5 16,8 18,0 19,8 20,2 18,0 2 1 4 2 ENE 1024,4 10 0 0,0
19.06.2018 23:00:00 18,7 16,5 18,1 20,3 20,4 18,0 2 1 8 4 - 1024,3 10 0 0,0
19.06.2018 22:00:00 19,4 16,5 19,0 21,0 20,5 18,0 5 3 8 4 E 1023,9 10 0 0,0
19.06.2018 21:00:00 20,1 16,2 19,8 21,9 20,5 18,0 4 2 8 4 ESE 1023,9 10 0 0,0
19.06.2018 20:00:00 20,8 15,9 21,3 22,8 20,4 18,0 5 3 9 5 NE 1024,1 10 0 0,0
19.06.2018 19:00:00 20,9 15,4 22,9 23,2 20,2 18,1 6 4 11 6 NNE 1024,1 50 0 0,0
19.06.2018 18:00:00 20,9 15,6 22,3 23,3 19,9 18,1 7 4 16 9 NNW 1024,4 45 0 0,0
19.06.2018 17:00:00 20,9 15,5 22,8 22,8 19,7 18,1 5 3 18 10 WNW 1024,5 40 0 0,0
19.06.2018 16:00:00 20,7 15,9 22,1 22,3 19,4 18,1 9 5 15 8 W 1024,6 40 1 0,0
19.06.2018 15:00:00 20,0 15,8 21,6 22,3 19,0 18,1 9 5 16 9 NW 1024,5 30 0 -
19.06.2018 14:00:00 19,1 16,6 19,2 21,4 18,7 18,1 9 5 14 7 W 1024,6 10 0 0,2
19.06.2018 13:00:00 18,2 15,6 19,7 20,0 18,6 18,1 5 3 24 13 NNE 1024,8 12 0 0,0
19.06.2018 12:00:00 17,8 15,4 17,7 19,1 18,4 18,1 7 4 9 5 WNW 1024,6 10 0 0,0
19.06.2018 11:00:00 17,9 14,7 18,3 19,3 18,2 18,1 5 3 12 6 W 1024,4 10 0 0,0
19.06.2018 10:00:00 17,8 14,3 18,6 18,9 18,1 18,1 6 4 13 7 SW 1024,1 45 0 0,0
19.06.2018 09:00:00 16,9 13,8 17,4 17,5 18,1 18,1 7 4 15 8 SSW 1023,8 45 0 0,0
19.06.2018 08:00:00 16,1 13,7 16,0 16,7 18,1 18,1 8 4 16 8 WSW 1023,7 10 0 0,0
19.06.2018 07:00:00 15,2 14,0 15,1 15,9 18,3 18,1 3 1 8 4 S 1023,5 40 0 0,0
19.06.2018 06:00:00 13,7 12,8 12,3 15,4 18,6 18,1 5 3 5 3 E 1023,1 50 0 0,0
19.06.2018 05:00:00 14,0 12,7 11,8 15,8 18,9 18,1 4 2 9 5 S 1022,6 50 0 0,0
19.06.2018 04:00:00 14,5 12,6 12,6 16,4 19,3 18,1 5 3 8 4 SSW 1022,4 50 0 0,0
19.06.2018 03:00:00 15,5 12,6 13,6 17,1 19,5 18,1 5 3 15 8 W 1022,4 50 0 0,0
19.06.2018 02:00:00 17,3 12,8 15,7 17,9 19,8 18,1 10 6 25 13 W 1022,4 50 0 0,0
19.06.2018 01:00:00 18,8 13,9 18,0 18,5 20,0 18,1 12 6 21 11 W 1022,0 50 0 0,0
19.06.2018 00:00:00 18,9 14,1 17,7 19,1 20,3 18,1 11 6 18 10 WNW 1021,8 50 0 0,0
18.06.2018 23:00:00 19,4 15,2 18,3 19,9 20,5 18,1 10 5 15 8 W 1021,2 50 0 0,0
18.06.2018 22:00:00 20,0 15,1 18,6 20,9 20,6 18,2 9 5 15 8 W 1020,7 50 1 0,0
18.06.2018 21:00:00 21,3 15,2 20,8 21,9 20,6 18,2 9 5 16 8 SW 1020,4 50 20 0,0
18.06.2018 20:00:00 22,2 15,8 22,8 22,5 20,4 18,2 9 5 15 8 WSW 1020,3 10 9 0,0
18.06.2018 19:00:00 21,6 15,2 22,3 22,7 20,3 18,2 9 5 14 7 S 1020,3 10 4 0,0
18.06.2018 18:00:00 20,6 15,0 21,6 22,4 20,2 18,2 11 6 16 9 SSE 1020,9 10 2 0,0
18.06.2018 17:00:00 19,2 17,0 18,6 21,7 20,1 18,2 5 3 27 14 SSW 1021,3 50 0 0,2
18.06.2018 16:00:00 21,2 13,9 22,2 22,2 19,9 18,2 10 5 18 10 SSW 1021,0 60 0 0,0
18.06.2018 15:00:00 20,8 13,6 21,2 22,2 19,7 18,2 10 5 16 8 SW 1020,9 55 0 0,0
18.06.2018 14:00:00 20,4 13,5 21,0 22,4 19,5 18,2 8 4 21 11 SSW 1021,0 10 0 0,0
18.06.2018 13:00:00 20,4 13,1 21,8 21,9 19,2 18,2 11 6 23 12 SSW 1021,0 10 0 0,0
18.06.2018 12:00:00 19,4 12,9 20,7 22,1 18,8 18,2 11 6 18 10 S 1021,2 10 0 0,0
18.06.2018 11:00:00 18,8 12,2 20,6 20,8 18,4 18,2 11 6 21 11 SSW 1021,3 50 0 0,0
18.06.2018 10:00:00 17,8 12,0 18,6 19,3 18,2 18,2 13 7 22 12 SSW 1021,4 10 0 0,0
18.06.2018 09:00:00 17,2 11,4 18,2 17,8 18,2 18,2 13 7 18 10 S 1021,1 10 1 0,0
18.06.2018 08:00:00 15,9 11,4 16,0 16,5 18,2 18,2 13 7 16 9 S 1021,1 10 0 0,0
18.06.2018 07:00:00 15,4 11,2 15,2 16,2 18,4 18,2 11 6 18 10 S 1020,9 10 0 0,0
18.06.2018 06:00:00 14,7 11,2 14,5 16,2 18,6 18,2 9 5 15 8 SE 1020,8 10 0 0,0
18.06.2018 05:00:00 14,5 11,2 14,3 16,3 18,7 18,2 9 5 13 7 SSE 1020,7 10 0 0,0
18.06.2018 04:00:00 14,5 11,3 14,3 16,5 18,9 18,2 9 5 13 7 SSE 1020,8 10 0 0,0
18.06.2018 03:00:00 15,0 10,9 14,6 16,7 19,2 18,2 9 5 9 5 S 1021,0 10 0 0,0
18.06.2018 02:00:00 14,7 11,0 14,3 16,9 19,4 18,2 9 5 9 5 S 1021,2 10 0 0,0
18.06.2018 01:00:00 14,5 11,0 14,1 17,1 19,7 18,2 6 3 11 6 S 1020,8 55 0 0,0
18.06.2018 00:00:00 14,7 10,9 14,4 17,4 20,0 18,2 5 3 9 5 SSE 1020,7 55 0 0,0
17.06.2018 23:00:00 14,4 11,5 13,9 17,6 20,4 18,2 5 3 11 6 S 1020,5 60 0 0,0
17.06.2018 22:00:00 14,9 9,7 13,0 18,3 20,7 18,2 8 4 16 9 W 1020,2 10 18 0,0
17.06.2018 21:00:00 17,0 9,2 16,4 19,5 21,0 18,2 13 7 21 11 W 1019,8 10 7 0,0
17.06.2018 20:00:00 17,4 9,2 17,4 20,4 21,1 18,2 18 10 34 18 WNW 1019,9 10 0 0,0
17.06.2018 19:00:00 17,5 9,2 18,0 21,1 21,3 18,2 17 9 32 17 WNW 1019,4 50 0 0,0
17.06.2018 18:00:00 17,5 9,5 18,0 21,9 21,4 18,2 22 12 35 19 WNW 1019,0 10 0 0,0
17.06.2018 17:00:00 18,4 10,6 19,4 22,5 21,4 18,2 20 11 34 18 WNW 1018,7 50 2 0,0
17.06.2018 16:00:00 18,4 11,6 19,7 22,2 21,4 18,2 17 9 31 17 WNW 1018,4 50 0 0,0
17.06.2018 15:00:00 19,5 12,0 20,8 23,4 21,2 18,2 19 10 33 18 WNW 1017,9 50 0 0,0
17.06.2018 14:00:00 19,9 10,9 21,4 25,4 20,7 18,2 19 10 29 16 W 1017,6 50 17 0,0
17.06.2018 13:00:00 21,2 13,2 25,5 24,2 20,3 18,2 16 9 28 15 W 1017,6 10 16 0,0
17.06.2018 12:00:00 19,5 11,9 21,7 22,8 19,9 18,2 16 9 29 15 WSW 1017,8 10 10 0,0
17.06.2018 11:00:00 18,5 11,9 20,4 22,0 19,6 18,2 18 10 26 14 WSW 1017,8 10 30 0,0
17.06.2018 10:00:00 18,1 12,2 20,6 20,9 19,3 18,2 15 8 23 12 WSW 1017,9 10 29 0,0
17.06.2018 09:00:00 16,9 12,5 17,2 19,6 19,2 18,2 13 7 16 9 SW 1017,7 10 11 0,0
17.06.2018 08:00:00 16,2 11,8 16,9 18,4 19,2 18,1 8 4 16 9 SSW 1017,4 45 42 0,0
17.06.2018 07:00:00 14,0 12,5 13,6 16,7 19,4 18,1 8 4 9 5 SSE 1017,5 10 0 0,0
17.06.2018 06:00:00 13,3 11,6 12,5 16,2 19,8 18,1 3 2 5 3 SSE 1017,3 45 0 0,0
17.06.2018 05:00:00 12,7 11,8 11,9 16,2 20,2 18,1 4 2 9 5 SSW 1017,3 30 0 0,0
17.06.2018 04:00:00 12,9 12,1 11,9 16,8 20,6 18,1 4 2 5 3 SSE 1017,1 10 0 0,0
17.06.2018 03:00:00 13,5 12,5 12,2 17,5 21,1 18,1 4 2 13 7 SW 1016,9 35 0 0,0
17.06.2018 02:00:00 13,8 12,9 12,7 18,1 21,5 18,1 4 2 13 7 - 1016,6 10 0 0,0
17.06.2018 01:00:00 15,0 13,5 13,6 19,1 22,0 18,1 5 3 16 9 S 1016,1 10 0 0,0
17.06.2018 00:00:00 16,6 14,7 15,5 20,2 22,4 18,0 10 6 16 9 W 1016,2 30 0 0,0
16.06.2018 23:00:00 17,0 16,7 16,6 20,9 22,9 18,0 8 4 13 7 SW 1016,0 7 0 0,0
16.06.2018 22:00:00 17,4 16,8 17,3 21,8 23,4 18,0 4 2 13 7 - 1015,4 10 0 1,5
16.06.2018 21:00:00 17,5 16,8 17,4 23,4 23,8 18,0 15 8 32 17 NW 1014,9 10 0 1,6
16.06.2018 20:00:00 19,6 15,5 19,7 25,7 24,0 18,0 9 5 20 11 NNW 1014,0 10 5 0,0
16.06.2018 19:00:00 20,8 14,9 21,2 27,2 24,1 18,0 18 10 34 18 WNW 1013,9 10 0 0,0
16.06.2018 18:00:00 24,1 12,5 25,9 30,0 23,7 18,0 7 4 21 11 W 1013,4 60 23 0,0
16.06.2018 17:00:00 25,0 13,5 28,8 31,1 23,2 18,0 17 9 22 12 NW 1013,7 60 29 0,0
16.06.2018 16:00:00 24,4 12,7 30,5 29,9 22,7 18,0 5 3 15 8 - 1013,8 10 17 0,0
16.06.2018 15:00:00 24,7 13,3 29,2 29,5 22,2 18,0 8 4 22 12 ENE 1014,2 60 24 0,0
16.06.2018 14:00:00 23,3 12,1 24,7 28,9 21,6 18,0 5 3 13 7 SE 1015,0 10 14 0,0
16.06.2018 13:00:00 23,4 12,0 26,2 28,6 20,8 18,0 4 2 22 12 SSE 1015,1 50 35 0,0
16.06.2018 12:00:00 22,9 13,3 27,3 26,6 20,1 18,0 5 3 13 7 - 1015,4 10 55 0,0
16.06.2018 11:00:00 21,8 12,9 24,5 24,2 19,6 18,0 4 2 9 5 - 1015,7 10 38 0,0
16.06.2018 10:00:00 19,9 13,8 21,5 21,4 19,3 18,0 4 2 9 5 - 1015,9 10 6 0,0
16.06.2018 09:00:00 18,3 14,4 19,5 19,5 19,3 17,9 6 3 13 7 WSW 1016,2 50 6 0,0
16.06.2018 08:00:00 16,8 14,5 17,1 18,0 19,4 17,9 12 7 15 8 ESE 1015,8 35 0 0,0
16.06.2018 07:00:00 15,2 14,3 14,8 17,2 19,6 17,9 6 3 11 6 SE 1016,1 30 0 0,0
16.06.2018 06:00:00 14,0 13,3 13,4 16,9 20,0 17,9 6 4 9 5 E 1016,1 45 0 0,0
16.06.2018 05:00:00 13,7 13,3 12,3 17,2 20,4 17,9 4 2 8 4 ESE 1016,0 45 0 0,0
16.06.2018 04:00:00 15,6 13,8 13,9 17,9 20,8 17,9 9 5 11 6 ESE 1015,9 50 0 0,0
16.06.2018 03:00:00 15,9 14,5 14,7 18,7 21,1 17,9 5 3 8 4 E 1015,9 60 0 0,0
16.06.2018 02:00:00 17,7 14,3 16,6 19,7 21,5 17,9 5 3 12 7 SSE 1015,9 60 0 0,0
16.06.2018 01:00:00 18,4 14,7 17,1 20,4 21,9 17,9 5 3 9 5 ESE 1015,8 60 0 0,0
16.06.2018 00:00:00 18,7 15,0 17,9 21,1 22,2 17,9 6 4 9 5 ESE 1015,7 60 0 0,0
15.06.2018 23:00:00 19,4 15,4 18,9 21,9 22,6 17,9 6 3 9 5 NNE 1015,9 70 0 0,0
15.06.2018 22:00:00 19,7 15,3 19,2 22,7 22,9 17,9 5 3 9 5 NE 1015,8 10 0 0,0
15.06.2018 21:00:00 21,0 14,4 20,3 23,9 23,2 17,9 5 3 8 4 ESE 1015,8 70 0 0,0
15.06.2018 20:00:00 21,5 13,9 21,3 25,4 23,4 17,9 5 3 18 10 SE 1015,7 10 9 0,0
15.06.2018 19:00:00 22,3 13,5 22,5 27,8 23,3 17,9 11 6 21 11 SE 1015,4 10 38 0,0
15.06.2018 18:00:00 22,6 13,1 23,3 28,4 23,0 17,9 5 3 21 11 E 1015,8 10 13 0,0
15.06.2018 17:00:00 23,4 11,8 27,9 31,2 22,3 17,9 11 6 22 12 SSE 1016,0 10 58 0,0
15.06.2018 16:00:00 23,1 13,0 27,0 29,2 21,7 17,9 11 6 22 12 S 1016,2 10 53 0,0
15.06.2018 15:00:00 21,6 13,2 23,9 27,0 21,2 17,9 10 6 21 11 S 1016,5 60 11 0,0
15.06.2018 14:00:00 21,2 13,2 23,1 28,1 20,4 17,9 11 6 24 13 SE 1016,8 55 44 0,0
15.06.2018 13:00:00 21,1 12,9 25,2 26,4 19,7 17,9 6 4 21 11 SSE 1017,0 55 51 0,0
15.06.2018 12:00:00 20,1 14,2 23,6 23,5 19,2 17,9 10 5 21 11 SE 1017,2 40 22 0,0
15.06.2018 11:00:00 18,9 14,4 20,1 22,5 18,8 17,9 5 3 13 7 SSE 1017,3 10 13 0,0
15.06.2018 10:00:00 17,5 14,0 17,6 21,6 18,4 17,9 3 2 9 5 SSE 1017,4 20 22 0,0
15.06.2018 09:00:00 16,9 13,8 17,3 20,1 18,1 17,9 5 3 9 5 SSE 1017,2 10 31 0,0
15.06.2018 08:00:00 16,0 14,5 16,5 17,7 18,1 17,9 8 4 9 5 ESE 1016,9 10 26 0,0
15.06.2018 07:00:00 14,9 14,2 14,7 16,7 18,2 17,9 5 3 11 6 SE 1016,7 10 0 0,0
15.06.2018 06:00:00 14,7 14,3 14,5 16,7 18,4 17,9 4 2 8 4 - 1016,7 7 0 0,0
15.06.2018 05:00:00 14,6 14,2 14,5 16,8 18,6 17,9 8 4 9 5 SE 1016,4 9 0 0,0
15.06.2018 04:00:00 14,8 14,2 14,6 17,1 18,8 18,0 5 3 9 5 ESE 1016,5 9 0 0,2
15.06.2018 03:00:00 15,1 14,1 14,9 17,3 19,0 18,0 2 1 5 3 E 1016,8 25 0 0,0
15.06.2018 02:00:00 15,2 14,0 14,8 17,4 19,2 18,0 4 2 8 4 - 1016,7 10 0 0,0
15.06.2018 01:00:00 15,1 13,9 14,7 17,6 19,4 18,0 8 4 13 7 S 1017,0 10 0 0,0

tt = Température de l'air
td = dewpoint
tt 5cm = Température de l'air 5cm
tt -5cm = Température de l'air -5cm
tt -20cm = Température de l'air -20cm
tt -100cm = Température de l'air -100cm
ff = Vitesse du vent
fx = gusts
dd = Direction du vent
ppp = reduced air pressure
vv = visibility
sd = Ensoleillement
rr = Quantités de précipitations

stations d'obs. à proximité